TimeCST,TemperatureF,Dew PointF,Humidity,Sea Level PressureIn,VisibilityMPH,Wind Direction,Wind SpeedMPH,Gust SpeedMPH,PrecipitationIn,Events,Conditions,WindDirDegrees,DateUTC
12:15 AM,19.2,10.9,70,30.04,10.0,West,6.9,-,N/A,,Overcast,280,2013-12-26 06:15:00
12:35 AM,18.5,11.1,73,30.04,10.0,West,4.6,-,N/A,,Overcast,280,2013-12-26 06:35:00
12:55 AM,18.1,11.1,74,30.05,10.0,WNW,5.8,-,N/A,,Overcast,290,2013-12-26 06:55:00
1:15 AM,18.5,11.3,73,30.05,10.0,WNW,4.6,-,N/A,,Overcast,290,2013-12-26 07:15:00
1:35 AM,17.6,10.9,75,30.05,10.0,WNW,3.5,-,N/A,Snow,Light Snow,290,2013-12-26 07:35:00
1:55 AM,18.0,11.1,75,30.06,10.0,WNW,4.6,-,N/A,Snow,Light Snow,300,2013-12-26 07:55:00
2:15 AM,18.0,11.1,75,30.07,7.0,NW,4.6,-,N/A,Snow,Light Snow,320,2013-12-26 08:15:00
2:35 AM,17.6,11.3,76,30.07,10.0,WNW,3.5,-,N/A,,Overcast,290,2013-12-26 08:35:00
2:55 AM,16.5,10.2,76,30.07,10.0,West,3.5,-,N/A,,Overcast,270,2013-12-26 08:55:00
3:15 AM,15.6,9.9,78,30.08,10.0,West,5.8,-,N/A,,Mostly Cloudy,270,2013-12-26 09:15:00
3:35 AM,14.7,9.1,79,30.08,10.0,West,3.5,-,N/A,,Scattered Clouds,280,2013-12-26 09:35:00
3:55 AM,14.2,7.7,75,30.09,10.0,West,4.6,-,N/A,,Mostly Cloudy,280,2013-12-26 09:55:00
4:15 AM,15.1,8.1,74,30.09,10.0,West,4.6,-,N/A,,Overcast,270,2013-12-26 10:15:00
4:35 AM,15.4,7.7,71,30.09,10.0,West,5.8,-,N/A,,Overcast,270,2013-12-26 10:35:00
4:55 AM,15.8,8.6,73,30.09,10.0,West,4.6,-,N/A,,Overcast,280,2013-12-26 10:55:00
5:15 AM,15.6,8.8,74,30.09,10.0,West,4.6,-,N/A,,Overcast,270,2013-12-26 11:15:00
5:35 AM,14.7,8.6,77,30.10,10.0,Calm,Calm,-,N/A,,Overcast,0,2013-12-26 11:35:00
5:55 AM,14.9,9.1,78,30.12,10.0,West,3.5,-,N/A,,Overcast,260,2013-12-26 11:55:00
6:15 AM,14.2,8.4,78,30.12,10.0,West,3.5,-,N/A,,Overcast,260,2013-12-26 12:15:00
6:35 AM,14.7,9.3,79,30.13,10.0,Calm,Calm,-,N/A,,Overcast,0,2013-12-26 12:35:00
6:55 AM,14.4,9.1,80,30.13,10.0,Calm,Calm,-,N/A,,Overcast,0,2013-12-26 12:55:00
7:15 AM,14.0,9.3,82,30.14,10.0,SSW,4.6,-,N/A,,Overcast,210,2013-12-26 13:15:00
7:35 AM,14.2,9.5,82,30.13,10.0,Calm,Calm,-,N/A,,Overcast,0,2013-12-26 13:35:00
7:55 AM,14.0,9.5,82,30.13,10.0,SSW,3.5,-,N/A,,Overcast,210,2013-12-26 13:55:00
8:15 AM,13.1,8.2,81,30.15,10.0,Calm,Calm,-,N/A,,Mostly Cloudy,0,2013-12-26 14:15:00
8:35 AM,12.4,7.5,81,30.16,10.0,Calm,Calm,-,N/A,,Scattered Clouds,0,2013-12-26 14:35:00
8:55 AM,12.9,8.4,82,30.17,10.0,SW,4.6,-,N/A,,Clear,220,2013-12-26 14:55:00
9:15 AM,14.2,8.8,79,30.17,10.0,SW,4.6,-,N/A,,Clear,220,2013-12-26 15:15:00
9:35 AM,16.2,9.3,74,30.17,10.0,SSW,3.5,-,N/A,,Clear,200,2013-12-26 15:35:00
9:55 AM,16.7,8.8,71,30.18,10.0,SW,5.8,-,N/A,,Clear,220,2013-12-26 15:55:00
10:15 AM,17.6,9.5,71,30.18,10.0,SW,5.8,-,N/A,,Scattered Clouds,230,2013-12-26 16:15:00
10:35 AM,17.4,9.0,69,30.18,10.0,SW,5.8,-,N/A,,Mostly Cloudy,230,2013-12-26 16:35:00
10:55 AM,18.1,9.3,68,30.17,10.0,SW,3.5,-,N/A,,Overcast,220,2013-12-26 16:55:00
11:15 AM,18.5,9.3,67,30.16,10.0,Calm,Calm,-,N/A,,Mostly Cloudy,0,2013-12-26 17:15:00
11:35 AM,19.4,9.5,65,30.15,10.0,South,5.8,-,N/A,,Mostly Cloudy,190,2013-12-26 17:35:00
11:55 AM,19.4,9.5,65,30.15,10.0,SSW,4.6,-,N/A,,Overcast,210,2013-12-26 17:55:00
12:15 PM,19.9,10.4,67,30.15,10.0,SSW,3.5,-,N/A,,Overcast,200,2013-12-26 18:15:00
12:35 PM,20.3,10.8,67,30.14,10.0,Calm,Calm,-,N/A,,Overcast,0,2013-12-26 18:35:00
12:55 PM,20.8,10.9,66,30.13,10.0,South,3.5,-,N/A,,Overcast,170,2013-12-26 18:55:00
1:15 PM,21.2,11.3,66,30.13,10.0,South,4.6,-,N/A,,Overcast,180,2013-12-26 19:15:00
1:35 PM,21.2,11.8,67,30.14,10.0,South,3.5,-,N/A,,Overcast,180,2013-12-26 19:35:00
1:55 PM,22.3,12.4,66,30.13,10.0,South,3.5,-,N/A,,Overcast,180,2013-12-26 19:55:00
2:15 PM,22.5,12.9,67,30.13,10.0,South,4.6,-,N/A,,Overcast,170,2013-12-26 20:15:00
2:35 PM,22.1,12.7,67,30.13,10.0,South,4.6,-,N/A,,Overcast,180,2013-12-26 20:35:00
2:55 PM,22.1,12.7,67,30.13,10.0,South,3.5,-,N/A,,Overcast,170,2013-12-26 20:55:00
3:15 PM,22.1,13.1,68,30.13,10.0,SSE,4.6,-,N/A,,Overcast,160,2013-12-26 21:15:00
3:35 PM,21.9,13.6,70,30.13,10.0,SSE,3.5,-,N/A,,Overcast,160,2013-12-26 21:35:00
3:55 PM,21.2,13.5,72,30.14,10.0,SE,4.6,-,N/A,,Overcast,140,2013-12-26 21:55:00
4:15 PM,21.0,13.3,72,30.14,10.0,SSE,4.6,-,N/A,,Mostly Cloudy,150,2013-12-26 22:15:00
4:35 PM,20.3,13.5,75,30.14,10.0,Calm,Calm,-,N/A,,Scattered Clouds,0,2013-12-26 22:35:00
4:55 PM,20.3,13.3,74,30.15,10.0,Calm,Calm,-,N/A,,Scattered Clouds,0,2013-12-26 22:55:00
5:15 PM,20.1,13.1,74,30.16,10.0,Calm,Calm,-,N/A,,Mostly Cloudy,0,2013-12-26 23:15:00
5:35 PM,19.9,13.1,75,30.16,10.0,Calm,Calm,-,N/A,,Overcast,0,2013-12-26 23:35:00
5:55 PM,19.9,13.6,77,30.16,10.0,Calm,Calm,-,N/A,,Overcast,0,2013-12-26 23:55:00
6:15 PM,19.4,13.5,78,30.17,10.0,Calm,Calm,-,N/A,,Overcast,0,2013-12-27 00:15:00
6:35 PM,19.4,13.5,78,30.17,10.0,Calm,Calm,-,N/A,,Overcast,0,2013-12-27 00:35:00
6:55 PM,19.2,13.6,79,30.18,10.0,Calm,Calm,-,N/A,,Overcast,0,2013-12-27 00:55:00
7:15 PM,19.2,13.6,79,30.18,10.0,Calm,Calm,-,N/A,,Overcast,0,2013-12-27 01:15:00
7:35 PM,19.2,13.8,80,30.19,10.0,Calm,Calm,-,N/A,,Overcast,0,2013-12-27 01:35:00
7:55 PM,19.0,13.6,79,30.18,10.0,Calm,Calm,-,N/A,,Overcast,0,2013-12-27 01:55:00
8:15 PM,19.0,14.0,81,30.18,10.0,Calm,Calm,-,N/A,,Overcast,0,2013-12-27 02:15:00
8:35 PM,19.0,14.0,81,30.18,10.0,Calm,Calm,-,N/A,,Overcast,0,2013-12-27 02:35:00
8:55 PM,19.2,14.0,80,30.18,10.0,Calm,Calm,-,N/A,,Overcast,0,2013-12-27 02:55:00
9:15 PM,19.2,14.0,80,30.18,10.0,Calm,Calm,-,N/A,,Overcast,0,2013-12-27 03:15:00
9:35 PM,19.4,14.0,80,30.18,10.0,Calm,Calm,-,N/A,,Overcast,0,2013-12-27 03:35:00
9:55 PM,19.2,14.0,80,30.18,10.0,Calm,Calm,-,N/A,,Overcast,0,2013-12-27 03:55:00
10:15 PM,18.9,14.0,81,30.18,10.0,Calm,Calm,-,N/A,,Overcast,0,2013-12-27 04:15:00
10:35 PM,18.9,14.0,81,30.19,10.0,Calm,Calm,-,N/A,,Overcast,0,2013-12-27 04:35:00
10:55 PM,18.1,14.0,84,30.19,7.0,Calm,Calm,-,N/A,,Overcast,0,2013-12-27 04:55:00
11:15 PM,17.6,13.6,84,30.20,7.0,Calm,Calm,-,N/A,,Overcast,0,2013-12-27 05:15:00
11:35 PM,17.2,13.1,84,30.20,7.0,Calm,Calm,-,N/A,,Overcast,0,2013-12-27 05:35:00
11:55 PM,15.3,11.7,86,30.19,7.0,Calm,Calm,-,N/A,,Scattered Clouds,0,2013-12-27 05:55:00